Main page
METAR-TAF:

METAR-TAF

Airports :

Burnet Municipal Airport

Burnet, Texas, United States

latitude: 30-44-26N, longitude: 098-14-07W, elevation: 1286 ft

Current weather observation

The report was made 45 minutes ago, at 09:53 UTC
Wind 8 mph from the North
Temperature 43°F
Humidity 100%
Pressure 30.21 in. Hg
Visibility: 9 miles
Overcast at a height of 500 ft
light rain

METAR: KBMQ 200953Z AUTO 01007KT 9SM -RA OVC005 06/06 A3021 RMK AO2 RAB12 SLP230 P0001 T00610056

Time: 04:38 (10:38 UTC)


TAF: missing

Weather observations and forecasts of more than 4000 airports (METAR and TAF reports).

The available stations are represented by yellow and red dots on the map.

Hover mouse over dot to see the name of the station.

Then click to see weather observations and forecasts.

To change the map : click on the green buttons with a black cross to zoom in, on the green button with a dash to zoom out, or on the green arrows for adjacent maps.


METAR-TAF: